This demonstration page uses our WeatherBlox Daily Observations layout. Learn more.

Left ArrowRight Arrow

41.86663, -103.66717

Hourly Observations for September 8, 2018

Temp ( °F °C ) Dew Point ( °F °C ) Humidity (%) Winds ( mph kmh ) Pressure ( in mb ) Visibility ( mi km ) Precip ( " mm )
12:53 am 00:53 Clear 57 13.9 57 13.9 100 100 E 7 11 30.13 1020 10 16 N/A
1:53 am 01:53 Clear 56 13.3 56 13.3 100 100 E 6 9 30.11 1020 10 16 N/A
2:53 am 02:53 Clear 54 12.2 54 12.2 100 100 E 8 13 30.10 1019 9 14 N/A
3:53 am 03:53 Clear 54 12.2 54 12.2 100 100 E 8 13 30.08 1019 8 13 N/A
4:53 am 04:53 Clear with Mist and Fog 53 11.7 53 11.7 100 100 ESE 6 9 30.08 1019 6 10 N/A
5:39 am 05:39 Partly Cloudy with Mist and Fog 53 11.7 53 11.7 100 100 ESE 9 15 30.06 1018 4 6 N/A
5:53 am 05:53 Partly Cloudy with Mist and Fog 53 11.7 53 11.7 100 100 ESE 8 13 30.06 1018 5 8 N/A
6:18 am 06:18 Mostly Cloudy 55 13 55 13 100 100 ESE 9 15 30.09 1019 7 11 N/A
6:53 am 06:53 Cloudy with Mist and Fog 56 13.3 56 13.3 100 100 ESE 8 13 30.06 1018 5 8 N/A
7:53 am 07:53 Cloudy with Mist and Fog 58 14.4 58 14.4 100 100 ESE 9 15 30.07 1018 6 10 N/A
8:41 am 08:41 Cloudy 61 16.1 60 15.6 97 97 SE 10 17 30.00 1016 10 16 N/A
8:53 am 08:53 Cloudy 61 16.1 60 15.6 97 97 SE 10 17 30.06 1018 10 16 N/A
9:50 am 09:50 Mostly Cloudy 66 19 59 15 78 78 SSE 12 19 29.97 1015 10 16 N/A
9:53 am 09:53 Partly Cloudy 67 19.4 59 15 76 76 SSE 13 20 30.05 1018 10 16 N/A
10:53 am 10:53 Mostly Sunny 72 22.2 60 15.6 66 66 S 13 20 30.02 1017 10 16 N/A
11:53 am 11:53 Sunny 75 23.9 60 15.6 60 60 SSE 13 20 29.99 1016 10 16 N/A
12:53 pm 12:53 Sunny 80 26.7 59 15 49 49 SSE 14 22 29.94 1014 10 16 N/A
1:53 pm 13:53 Sunny 82 27.8 56 13.3 41 41 S 14 22 29.91 1013 10 16 N/A
2:53 pm 14:53 Sunny 84 28.9 54 12.2 36 36 SSE 17 28 29.87 1012 10 16 N/A
3:53 pm 15:53 Sunny 84 28.9 54 12.2 36 36 SSE 14 22 29.84 1011 10 16 N/A
4:53 pm 16:53 Sunny 83 28.3 54 12.2 37 37 SSE 15 24 29.83 1010 10 16 N/A
5:53 pm 17:53 Sunny 79 26.1 54 12.2 42 42 SE 14 22 29.83 1010 10 16 N/A
6:32 pm 18:32 Partly Cloudy with Nearby Thunderstorms 77 25 55 13 47 47 ESE 9 15 29.71 1006 10 16 N/A
6:48 pm 18:48 Cloudy with Thunderstorms 72 22 57 14 61 61 N 13 20 29.80 1009 10 16 N/A
6:53 pm 18:53 Windy with Storms Likely 68 20 60 15.6 76 76 N 22 35 29.91 1013 8 13 N/A
7:00 pm 19:00 Cloudy with Strong Thunderstorms 68 20 61 16 78 78 NE 12 19 29.80 1009 3 4 N/A
7:05 pm 19:05 Cloudy with Thunderstorms 69 20.6 60 15.6 73 73 NE 10 17 29.80 1009 3 5 0.07 1.78
7:24 pm 19:24 Partly Cloudy 66 19 63 17 88 88 E 8 13 29.83 1010 10 16 N/A
7:53 pm 19:53 Partly Cloudy 66 18.9 63 17.2 90 90 E 12 19 29.92 1013 10 16 0.07 1.78
8:53 pm 20:53 Mostly Cloudy 65 18.3 62 16.7 90 90 ESE 14 22 29.93 1014 10 16 N/A
9:53 pm 21:53 Clear 64 17.8 63 17.2 96 96 ESE 17 28 29.92 1013 10 16 N/A
10:53 pm 22:53 Clear 63 17.2 63 17.2 100 100 SE 16 26 29.91 1013 10 16 N/A
11:53 pm 23:53 Clear 62 16.7 62 16.7 100 100 SE 12 19 29.89 1012 10 16 N/A

Powered by AerisWeather